Content
SEND FEEDBACK

Daily
Averages
Monthly
Summary
United Kingdom

LYDD, ENGLAND


Home > Europe > United Kingdom > England
Elevation: 3 feet     Latitude: 50 57N     Longitude: 000 56E

WEATHER
 
SELECT A DAY
Number of Records: 67,131;   Date Range: 7/1/96 - 8/18/14
 
SHARE

PRINT THIS DATA

[ ← Previous Day ]
WEATHER ALMANAC - NOVEMBER 21, 2013
[ Next Day → ]
[ °C ]   °F
Weather ElementAverageHighLow
Temperature42.7 °F46.4 °F (10:20 am)39.2 °F (5:50 pm)
Dewpoint39.5 °F41 °F (8:20 am)35.6 °F (5:20 pm)
Humidity88.5 %93 % (7:20 am)81 % (10:20 am)
Barometer29.62 in29.77 in (5:50 pm)29.39 in (7:20 am)
Wind Speed15.5 mph23 mph (8:50 am)
Weather ElementAverage
Visibility6 mi
Wind DirectionESE (121.7 °)

Weather ElementTotal
Precipitation---
Heating Degree Days22.2 (Base 65)
Averaged from 24 records on November 21, 2013
WEATHER CONDITIONS BREAKOUT
WIND DIRECTION BREAKOUT
WEATHER BY HOUR - NOVEMBER 21, 2013
[ °C ]   °F
Local TimeTemperatureDewpointHumidityBarometerVisibilityWind DirectionWind SpeedGust SpeedPrecipitationEventsConditions
7:20 AM41.0 °F39.2 °F93 %29.39 in5.6 miNNW (340°)20.7 mphScattered Clouds
7:50 AM41.0 °F39.2 °F93 %29.39 in5.6 miNorth (360°)15.0 mphRainLight Rain Showers
8:20 AM42.8 °F41.0 °F93 %29.42 in6.2 miEast (80°)20.7 mphMostly Cloudy
8:50 AM42.8 °F39.2 °F87 %29.47 in6.2 miEast (100°)23.0 mphMostly Cloudy
9:20 AM42.8 °F39.2 °F87 %29.53 in6.2 miEast (90°)19.6 mphMostly Cloudy
9:50 AM42.8 °F39.2 °F87 %29.56 in6.2 miEast (80°)17.3 mphScattered Clouds
10:20 AM46.4 °F41.0 °F81 %29.56 in6.2 miEast (80°)17.3 mphScattered Clouds
10:50 AM44.6 °F41.0 °F87 %29.59 in3.7 miNE (50°)16.1 mphRainLight Rain Showers
11:20 AM42.8 °F41.0 °F93 %29.59 in6.2 miNorth (360°)11.5 mphMostly Cloudy
11:50 AM42.8 °F41.0 °F93 %29.62 in5.0 miNNE (20°)16.1 mphRainLight Rain Showers
12:20 PM42.8 °F41.0 °F93 %29.62 in6.2 miNNE (30°)12.7 mphMostly Cloudy
12:50 PM44.6 °F41.0 °F87 %29.62 in6.2 miNE (40°)19.6 mphScattered Clouds
1:20 PM44.6 °F39.2 °F81 %29.65 in6.2 miNE (40°)16.1 mphRainLight Rain Showers
1:50 PM42.8 °F41.0 °F93 %29.65 in6.2 miNNE (20°)13.8 mphRainLight Rain Showers
2:20 PM44.6 °F41.0 °F87 %29.65 in6.2 miNNE (20°)13.8 mphRainLight Rain Showers
2:50 PM42.8 °F41.0 °F93 %29.68 in6.2 miNE (40°)18.4 mphMostly Cloudy
3:20 PM42.8 °F39.2 °F87 %29.68 in6.2 miNorth (360°)11.5 mphMostly Cloudy
3:50 PM42.8 °F41.0 °F93 %29.71 in6.2 miNorth (360°)9.2 mphScattered Clouds
4:20 PM42.8 °F41.0 °F93 %29.71 in6.2 miNNE (20°)12.7 mphScattered Clouds
4:50 PM42.8 °F37.4 °F81 %29.74 in6.2 miNNE (20°)17.3 mphPartly Cloudy
5:20 PM41.0 °F35.6 °F81 %29.74 in6.2 miNNE (20°)13.8 mphPartly Cloudy
5:50 PM39.2 °F35.6 °F87 %29.77 in6.2 miNNE (20°)11.5 mphPartly Cloudy
6:20 PM39.2 °F35.6 °F87 %29.77 in6.2 miNorth (360°)11.5 mphPartly Cloudy
6:50 PM41.0 °F37.4 °F87 %29.77 in6.2 miNorth (10°)12.7 mphScattered Clouds
Hourly data recorded from EGMD, located miles away from Lydd, England







STORIES FROM OUR PARTNERS